Location: *
(49.3500°N, 12.6000°E)
Time: 16:29:19
(UTC+00:00)

Cosmos 1939 Rocket - Pass Details

Date: 18 October 2019
Orbit: 533 x 584 km, 97.4° (Epoch: 17 November)

Event Time Altitude Azimuth Distance (km) Brightness Sun altitude
Exits shadow 17:53:07 - 164° (SSE) 2,514 6.0 -16.8°
Reaches altitude 10° 17:54:44 10° 164° (SSE) 1,836 5.3 -17.1°
Maximum altitude 17:58:43 87° 76° (ENE) 571 2.8 -17.7°
Drops below altitude 10° 18:02:48 10° 348° (NNW) 1,883 5.8 -18.4°
Sets 18:04:59 0° 348° (NNW) 2,793 6.7 -18.8°
